LA4GY-1 Weather Reports


Display with metric or nautical units.
time (UTC)temp
F
wind
direction
speed
MPH
gust
MPH
rain 1hr
in
rain 24hr
in
rain mn
in
humidity
%
barometer
mb
20260505180006 37 268 0.0 0.0 0.02 0.18 0.18 91 1003.0
20260505175005 38 202 0.0 0.0 0.02 0.17 0.17 91 1003.0
20260505174006 37 214 0.0 0.0 0.02 0.17 0.17 91 1003.0
20260505173006 37 205 0.0 0.0 0.02 0.17 0.17 91 1003.0
20260505172005 37 205 0.0 0.0 0.02 0.17 0.17 92 1003.0
20260505171006 37 205 0.0 0.0 0.01 0.17 0.17 91 1003.0
20260505170005 37 205 0.0 0.0 0.01 0.17 0.17 92 1003.1
20260505165006 37 212 0.0 0.0 0.01 0.16 0.16 92 1003.1
20260505164006 37 213 0.0 0.0 0.01 0.16 0.16 92 1003.0
20260505163007 37 213 0.0 0.0 0.01 0.16 0.16 93 1003.1
20260505162006 36 213 0.0 0.0 0.01 0.16 0.16 92 1003.1
20260505161006 36 212 0.0 0.0 0.02 0.16 0.16 91 1003.2
20260505153006 36 213 0.0 0.0 0.03 0.15 0.15 91 1003.5
20260505152006 36 213 0.0 0.0 0.03 0.15 0.15 89 1003.5
20260505151006 37 214 0.0 0.0 0.02 0.13 0.13 88 1003.4
20260505125005 38 276 0.0 0.0 0.02 0.09 0.09 84 1002.4
20260505124006 40 226 0.0 0.0 0.02 0.09 0.09 81 1002.4
20260505123006 42 254 0.0 0.0 0.01 0.08 0.08 79 1002.4
20260505122005 43 209 0.0 0.0 0.00 0.07 0.07 79 1002.1
20260505115006 40 204 0.0 0.0 0.00 0.07 0.07 90 1002.2
20260505113005 42 220 0.0 0.0 0.00 0.07 0.07 77 1001.9
20260505112005 43 227 0.0 0.0 0.00 0.07 0.07 79 1001.7
20260505111005 43 225 0.0 0.0 0.00 0.07 0.07 81 1001.6
20260505102006 39 220 0.0 0.0 0.01 0.09 0.07 88 1001.7
20260505101006 40 220 0.0 0.0 0.01 0.09 0.07 88 1001.6
20260505094006 40 203 0.0 0.0 0.00 0.12 0.06 92 1001.6
20260505093005 39 198 0.0 0.0 0.00 0.13 0.06 93 1001.6
20260505092005 38 202 0.0 0.0 0.00 0.13 0.06 93 1001.7
20260505091005 37 205 0.0 0.0 0.01 0.14 0.06 92 1001.7
20260505090005 37 211 0.0 0.0 0.02 0.14 0.06 92 1001.8
20260505085006 36 202 0.0 0.0 0.02 0.15 0.06 92 1001.8
20260505084006 35 202 0.0 0.0 0.02 0.17 0.06 91 1001.7
20260505083006 35 225 0.0 0.0 0.03 0.18 0.06 90 1001.7
20260505081006 36 173 0.0 0.0 0.05 0.20 0.06 89 1001.6
20260505080005 36 178 0.0 0.0 0.03 0.20 0.04 89 1001.6
20260505075005 36 177 0.0 0.0 0.03 0.21 0.04 89 1001.5
20260505073005 36 219 0.0 0.0 0.02 0.23 0.03 87 1001.4
20260505072005 37 219 0.0 0.0 0.00 0.21 0.01 86 1001.4
20260505071006 38 209 0.0 0.0 0.00 0.22 0.01 87 1001.2
20260505070006 37 210 0.0 0.0 0.00 0.24 0.01 88 1001.2
20260505065005 37 222 0.0 0.0 0.00 0.25 0.01 87 1001.1
20260505064005 37 213 0.0 0.0 0.00 0.26 0.01 87 1001.1
20260505063005 37 208 0.0 0.0 0.00 0.28 0.01 87 1000.9
20260505061005 37 203 0.0 0.0 0.00 0.28 0.01 88 1000.9
20260505060005 36 265 0.0 0.0 0.00 0.28 0.01 87 1000.9
20260505055006 36 266 0.0 0.0 0.00 0.28 0.01 87 1000.9
20260505054005 36 267 0.0 0.0 0.00 0.28 0.01 88 1000.9
20260505053005 35 229 0.0 0.0 0.00 0.28 0.01 91 1000.9
20260505052005 34 229 0.0 0.0 0.00 0.28 0.01 92 1000.9
20260505051005 34 309 0.0 0.0 0.00 0.28 0.01 92 1000.9
20260505040005 33 42 0.0 0.0 0.00 0.28 0.01 93 1000.5
20260505035005 32 42 0.0 0.0 0.00 0.28 0.01 92 1000.6
20260505034005 32 42 0.0 0.0 0.00 0.28 0.01 92 1000.4
20260505032005 32 205 0.0 0.0 0.00 0.28 0.01 91 1000.4
20260505031005 32 205 0.0 0.0 0.00 0.28 0.01 91 1000.5
20260505030005 32 205 0.0 0.0 0.00 0.28 0.01 91 1000.5
20260505025005 32 205 0.0 0.0 0.00 0.28 0.01 91 1000.6
20260505024005 32 205 0.0 0.0 0.00 0.28 0.01 91 1000.6
20260505023004 32 205 0.0 0.0 0.00 0.28 0.01 91 1000.6
20260505022005 33 205 0.0 0.0 0.00 0.28 0.01 91 1000.6
20260505021005 33 205 0.0 0.0 0.00 0.28 0.01 90 1000.6
20260505020005 33 205 0.0 0.0 0.00 0.28 0.01 90 1000.5
20260505015005 34 205 0.0 0.0 0.00 0.28 0.01 90 1000.3
20260505014005 34 285 0.0 0.0 0.00 0.28 0.01 91 1000.1
20260505013005 34 291 0.0 0.0 0.00 0.28 0.01 91 1000.3
20260505012005 34 109 0.0 0.0 0.00 0.28 0.01 91 1000.5
20260505010005 34 335 0.0 0.0 0.00 0.28 0.01 91 1000.4
20260505005005 34 335 0.0 0.0 0.01 0.28 0.01 90 1000.3
20260505003005 34 335 0.0 0.0 0.01 0.28 0.01 89 1000.4
20260505002005 34 336 0.0 0.0 0.01 0.28 0.01 89 1000.5
20260505000004 34 225 0.0 0.0 0.01 0.28 0.01 89 1000.5
20260504235005 34 260 0.0 0.0 0.00 0.28 0.00 88 1000.5
20260504231005 34 270 0.0 0.0 0.00 0.28 0.00 86 1000.0
20260504230005 34 272 0.0 0.0 0.00 0.28 0.00 85 1000.0
20260504225004 34 272 0.0 0.0 0.00 0.28 0.00 85 1000.1
20260504224005 34 269 0.0 0.0 0.00 0.28 0.00 84 1000.0
20260504222005 35 286 0.0 0.0 0.00 0.28 0.00 83 999.8
20260504221005 35 261 0.0 0.0 0.00 0.28 0.00 83 999.8
20260504220004 36 270 0.0 0.0 0.00 0.28 0.00 83 999.7
20260504215005 35 232 0.0 0.0 0.00 0.28 0.28 82 999.7
20260504214005 36 300 0.0 0.0 0.00 0.28 0.28 81 999.8
20260504213005 37 196 0.0 0.0 0.00 0.28 0.28 80 999.6
20260504211005 37 207 0.0 0.0 0.00 0.28 0.28 80 999.6
20260504210005 37 260 0.0 0.0 0.00 0.28 0.28 79 999.6
20260504205005 37 198 0.0 0.0 0.00 0.28 0.28 79 999.6
20260504204005 37 262 0.0 0.0 0.00 0.28 0.28 79 999.4
20260504203005 37 252 0.0 0.0 0.00 0.28 0.28 79 999.5
20260504202005 38 259 0.0 0.0 0.00 0.28 0.28 78 999.6
20260504201005 38 244 0.0 0.0 0.00 0.28 0.28 76 999.6
20260504200005 38 236 0.0 0.0 0.00 0.28 0.28 75 999.5
20260504194004 38 229 0.0 0.0 0.00 0.28 0.28 76 999.4
20260504193004 38 260 0.0 0.0 0.00 0.28 0.28 76 999.3
20260504192005 38 254 0.0 0.0 0.00 0.28 0.28 75 999.2
20260504190005 38 215 0.0 0.0 0.00 0.28 0.28 76 998.9
20260504185005 39 226 0.0 0.0 0.00 0.28 0.28 76 999.0
20260504184006 39 266 0.0 0.0 0.00 0.28 0.28 75 998.8
20260504183004 39 231 0.0 0.0 0.00 0.28 0.28 75 998.7